TimeCDT,TemperatureF,Dew PointF,Humidity,Sea Level PressureIn,VisibilityMPH,Wind Direction,Wind SpeedMPH,Gust SpeedMPH,PrecipitationIn,Events,Conditions,WindDirDegrees,DateUTC
12:53 AM,75.9,54.0,46,29.89,10.0,SSW,3.5,-,N/A,,Clear,210,2013-06-29 05:53:00
1:53 AM,73.9,55.0,52,29.90,10.0,SW,4.6,-,N/A,,Clear,230,2013-06-29 06:53:00
2:53 AM,78.1,53.1,42,29.92,10.0,NE,6.9,-,N/A,,Clear,50,2013-06-29 07:53:00
3:53 AM,75.0,57.9,55,29.92,10.0,ENE,4.6,-,N/A,,Clear,70,2013-06-29 08:53:00
4:53 AM,73.9,57.9,57,29.91,10.0,SE,6.9,-,N/A,,Clear,130,2013-06-29 09:53:00
5:53 AM,73.0,57.9,59,29.97,10.0,NNE,8.1,-,N/A,,Clear,20,2013-06-29 10:53:00
6:53 AM,73.0,59.0,61,29.97,10.0,NE,11.5,-,N/A,,Clear,50,2013-06-29 11:53:00
7:53 AM,73.0,57.0,57,29.98,10.0,East,11.5,-,N/A,,Clear,80,2013-06-29 12:53:00
8:53 AM,73.9,57.9,57,29.96,10.0,ESE,8.1,-,N/A,,Clear,120,2013-06-29 13:53:00
9:53 AM,79.0,55.9,45,30.00,10.0,ENE,15.0,-,N/A,,Clear,60,2013-06-29 14:53:00
10:53 AM,81.0,55.0,41,30.00,10.0,East,11.5,18.4,N/A,,Clear,90,2013-06-29 15:53:00
11:53 AM,84.0,54.0,35,29.97,10.0,East,9.2,-,N/A,,Clear,90,2013-06-29 16:53:00
12:53 PM,87.1,52.0,30,29.95,10.0,ESE,9.2,-,N/A,,Clear,110,2013-06-29 17:53:00
1:53 PM,89.1,52.0,28,29.93,10.0,ENE,8.1,-,N/A,,Clear,70,2013-06-29 18:53:00
2:53 PM,91.0,53.1,27,29.90,10.0,Variable,4.6,-,N/A,,Clear,0,2013-06-29 19:53:00
3:53 PM,91.9,53.1,27,29.87,10.0,Variable,3.5,-,N/A,,Clear,0,2013-06-29 20:53:00
4:53 PM,93.0,52.0,25,29.85,10.0,NE,8.1,-,N/A,,Clear,40,2013-06-29 21:53:00
5:53 PM,93.0,52.0,25,29.84,10.0,North,6.9,-,N/A,,Clear,350,2013-06-29 22:53:00
6:53 PM,91.0,52.0,26,29.83,10.0,Variable,3.5,-,N/A,,Clear,0,2013-06-29 23:53:00
7:53 PM,90.0,52.0,27,29.83,10.0,NNE,5.8,-,N/A,,Clear,30,2013-06-30 00:53:00
8:53 PM,86.0,53.1,32,29.85,10.0,Calm,Calm,-,N/A,,Partly Cloudy,0,2013-06-30 01:53:00
9:53 PM,86.0,54.0,33,29.86,10.0,East,3.5,-,N/A,,Mostly Cloudy,100,2013-06-30 02:53:00
10:53 PM,84.9,53.1,33,29.86,10.0,ENE,6.9,-,N/A,,Clear,70,2013-06-30 03:53:00
11:53 PM,81.0,54.0,39,29.90,10.0,East,10.4,-,N/A,,Scattered Clouds,90,2013-06-30 04:53:00